www.pogodaiklimat.ru

Погода и климат >> Архив погоды >> Шри Ланка >> Канди


ПОГОДА в Канди

  • Прогноз погоды в Канди
  • Монитор погоды в Канди

АРХИВ ПОГОДЫ в Канди

Время (UTC), дата Ветер
(напр.,м/с)
 
Видим.   Явления Облачность Т
(С)
Тd
(С)
f
(%)
Тe
(С)
Тes
(С)
Комфортность P
(гПа)
Po
(гПа)
Тmin
(С)
Tmax
(С)
R
(мм)
R24
(мм)
S
(см)
21 14.09 штиль 0 20 км 1/1 540 м
[Cu hum]
+21.5 +20.9 96 +27 +27 душно 1009.4 956.4
00 15.09 штиль 0 20 км ясно +21.0 +20.4 96 +26 +26 душно 1010.0 956.8
03 15.09 штиль 0 20 км 6/4 540 м
[Cu hum Ci fib]
+24.9 +22.0 84 +32 +38 очень
душно
1012.3 959.1 +20.6
06 15.09 З 3 20 км 8/8 540 м
[Cu med, cong]
+27.6 +22.3 73 +36 +40 очень
душно
1011.2 958.3
09 15.09 штиль 0 20 км {ливн. осадки, дождь} 10/6 540 м
[Cu med, cong As op]
+26.4 +23.0 82 +35 +37 очень
душно
1008.8 955.9 8
15 15.09 ЮЗ 2 10 км слаб. ливневой дождь 10/6 540 м
[Cu med, cong As op]
+22.7 +21.9 95 +30 +30 очень
душно
1011.4 958.3 3
18 15.09 штиль 0 20 км {ливн. осадки, дождь} 10/5 540 м
[Cu med, cong As op]
+21.7 +21.3 98 +28 +28 душно 1011.4 958.3 0.3
21 15.09 штиль 0 20 км слаб. ливневой дождь 10/6 540 м
[Cu med, cong As op]
+22.0 +21.7 98 +29 +29 очень
душно
1009.8 956.8 0.8
00 16.09 штиль 0 20 км {ливн. осадки, дождь} 10/6 540 м
[Cu med, cong As op]
+22.2 +21.5 96 +29 +29 очень
душно
1010.4 957.0 0.6
03 16.09 штиль 0 20 км {ливн. осадки, дождь} 9/4 540 м
[Cu hum Cs]
+23.8 +21.8 89 +31 +36 очень
душно
1011.5 958.2 +21.3 0.5
06 16.09 Ю 4 20 км 9/5 540 м
[Cu med, cong Cs]
+25.9 +21.7 78 +33 +39 очень
душно
1010.5 957.5
09 16.09 З 4 20 км в посл. час ливневой дождь 10/6 540 м
[Cu med, cong Ac cuf Cs]
+24.0 +22.6 92 +31 +33 очень
душно
1009.0 955.9 3
12 16.09 З 3 20 км {ливн. осадки} 10/6 540 м
[Cu med, cong Ac As]
+23.9 +21.9 89 +31 +31 очень
душно
1008.9 955.8 +27.0 0.0
15 16.09 штиль 0 20 км {ливн. осадки} 9/6 540 м
[Cu med, cong Cs]
+23.0 +21.5 91 +31 +31 очень
душно
1009.6 956.4 0.0
18 16.09 З 1 20 км слаб. ливневой дождь 10/8 540 м
[Cu med, cong Ac As Cs]
+22.5 +21.9 96 +30 +30 очень
душно
1009.9 956.9 0.3
21 16.09 З 1 20 км {ливн. осадки} 8/5 540 м
[Cu hum Ac cuf Cs]
+22.1 +21.8 98 +29 +29 очень
душно
1008.4 955.3 0.0
00 17.09 СЗ 1 20 км 8/6 540 м
[Cu hum Ac cuf Cs]
+23.0 +21.5 91 +31 +31 очень
душно
1008.8 955.7
03 17.09 Ю 1 20 км 6/5 540 м
[Cu hum Ci fib]
+25.0 +22.3 85 +33 +37 очень
душно
1009.9 956.9 +21.6
06 17.09 З 5 20 км {ливн. осадки} 8/8 540 м
[Cu med, cong]
+27.0 +22.7 77 +36 +38 очень
душно
1009.3 956.3 0.7
09 17.09 З 2 20 км {ливн. осадки} 6/6 540 м
[Cu med, cong Ci fib]
+26.4 +23.5 84 +36 +42 очень
душно
1007.1 954.2 0.8
15 17.09 З 1 20 км 8/5 540 м
[Cu hum Cs]
+23.4 +21.3 88 +31 +31 очень
душно
1009.2 956.2
18 17.09 З 1 20 км 4/3 540 м
[Cu hum Ci fib]
+22.0 +21.1 95 +28 +28 душно 1009.6 956.6
21 17.09 штиль 0 20 км 3/3 540 м
[Cu hum]
+21.2 +20.9 98 +27 +27 душно 1008.1 955.2
00 18.09 З 1 20 км 4/1 540 м
[Cu hum Ac trans Ci fib]
+20.6 +20.3 98 +26 +26 душно 1009.0 955.7
03 18.09 СВ 1 20 км 3/3 540 м
[Cu hum]
+24.5 +21.7 84 +31 +37 очень
душно
1010.6 957.6 +20.2
06 18.09 З 2 20 км слаб. дождь 9/6 540 м
[Cu med, cong As trans]
+27.4 +21.0 68 +34 +39 очень
душно
1010.2 957.2 0.0
09 18.09 СЗ 2 20 км {ливн. осадки} 8/4 540 м
[Cu hum Cs]
+27.0 +22.1 75 +35 +43 очень
душно
1007.7 954.8 0.2
12 18.09 штиль 0 20 км 9/4 540 м
[Cu hum Ac trans Cs]
+27.0 +22.1 75 +35 +35 очень
душно
1008.8 955.7 +28.6
15 18.09 штиль 0 20 км 5/3 540 м
[Cu hum Ci fib]
+23.9 +21.9 89 +31 +31 очень
душно
1010.4 957.4
18 18.09 штиль 0 20 км 6/3 540 м
[Cu hum Cs]
+22.9 +20.2 85 +30 +30 очень
душно
1010.6 957.8
21 18.09 штиль 0 20 км 6/4 540 м
[Cu hum Ci fib]
+22.2 +21.3 95 +29 +29 очень
душно
1008.2 955.3
00 19.09 штиль 0 20 км {дождь} 8/5 540 м
[Cu hum As trans]
+21.8 +21.2 96 +28 +28 душно 1009.1 956.1 0.1
03 19.09 З 1 20 км 6/6 540 м
[Cu hum]
+25.4 +22.8 86 +34 +37 очень
душно
1011.1 958.0 +21.1
06 19.09 З 2 20 км 5/5 540 м
[Cu med, cong]
+28.0 +22.3 71 +37 +47 очень
душно
1009.9 957.1
09 19.09 Ю 3 20 км {дождь} 9/8 540 м
[Cu med, cong Ac As]
+27.0 +22.4 76 +35 +37 очень
душно
1008.5 955.6 0.3
15 19.09 штиль 0 20 км 9/3 540 м
[Cu hum Cs]
+23.6 +21.9 90 +30 +30 очень
душно
1010.7 957.7
18 19.09 штиль 0 20 км 8/0
[Cs]
+23.2 +21.1 88 +31 +31 очень
душно
1011.2 958.3
21 19.09 штиль 0 20 км 8/0
[Cs]
+21.8 +21.2 96 +28 +28 душно 1009.2 956.2
03 20.09 СЗ 1 20 км 10/6 540 м
[Cu hum Ac As]
+24.3 +21.5 84 +31 +32 очень
душно
1011.2 958.5 +20.9
06 20.09 штиль 0 20 км 9/6 540 м
[Cu hum Ac As Ci fib]
+26.2 +21.3 74 +33 +40 очень
душно
1010.3 957.3
09 20.09 З 2 20 км {дождь} 9/5 540 м
[Cu med, cong Cs]
+28.2 +23.1 74 +38 +44 очень
душно
1007.7 955.0 0.7
12 20.09 штиль 0 20 км {дождь} 10/5 540 м
[Cu med, cong Ac As]
+25.0 +22.7 87 +33 +33 очень
душно
1008.2 955.5 +28.5 9
15 20.09 штиль 0 20 км 5/1 540 м
[Cu hum Cs]
+23.4 +22.0 92 +32 +32 очень
душно
1010.1 952.1
21 20.09 штиль 0 20 км 5/1 540 м
[Cu hum Cs]
+21.8 +20.6 93 +28 +28 душно 1008.1 955.6
00 21.09 штиль 0 20 км ясно +20.8 +20.2 96 +25 +25 комфорт 1009.4 956.2
03 21.09 СЗ 4 20 км 8/3 540 м
[Cu hum Cs]
+24.6 +21.4 82 +31 +34 очень
душно
1009.6 956.6 +20.3
06 21.09 ЮЗ 2 20 км 5/5 540 м
[Cu med, cong]
+27.9 +22.1 71 +36 +47 очень
душно
1009.0 956.2
09 21.09 СЗ 3 20 км 5/5 540 м
[Cu med, cong]
+29.0 +23.3 71 +39 +45 очень
душно
1006.2 953.6
12 21.09 штиль 0 20 км {ливн. осадки, дождь} 8/4 540 м
[Cu med, cong Cs]
+27.8 +23.5 77 +38 +38 очень
душно
1006.3 953.4 +30.5 0.1

 

Местоположение метеостанции Канди (Шри Ланка): широта 7.33 долгота 80.63 высота над уровнем моря 477 м.

В архиве по умолчанию представлена погода в Канди за последнюю неделю. Архивные данные за месяц целиком и за предыдущие месяцы, начиная с января 2011 года, Вы можете получить, выбрав интересующий диапазон дат из раскрывающегося списка и нажав кнопку "Ввод!".


*Определитесь, кто Вы:
робот инопланетянин человек

Внимание! Время в таблицах - всемирное. Для получения местного времени необходимо прибавить поправку, которая равна 6 ч.

Смотрите также архив погоды в соседних городах и на ближайших метеорологических станциях:

Погода в Курунегала (Шри Ланка) (33 км)
Погода в Нувара Элия (Шри Ланка) (43 км)
Погода в Бадулла (Шри Ланка) (61 км)
Погода в Дияталаве (Шри Ланка) (68 км)
Погода в Ратнапуре (Шри Ланка) (77 км)
Погода в Аэропорту Бандаранаайк (Шри Ланка) (85 км)
Погода в Маха Иллуппаллама (Шри Ланка) (90 км)
Погода в Коломбо (Шри Ланка) (97 км)
Погода в Ратмалане (Шри Ланка) (100 км)
Погода в Анурадхапуре (Шри Ланка) (114 км)

Пояснения к столбцам:

Ветер - указаны скорость ветра в м/с - средняя за 10 мин, порывы в срок и между сроками (в фигурных скобках) и направление, откуда дует ветер: С - северный, СВ - северо-восточный, В - восточный, ЮВ - юго-восточный, Ю - южный, ЮЗ - юго-западный, З - западный, СЗ - северо-западный.
Видимость - горизонтальная дальность видимости в метрах или километрах. При видимости от 1 до 10 км при отсутствии осадков обычно наблюдается дымка, при ухудшении видимости до 1 км и менее - туман. В сухую погоду видимость может ухудшаться дымом, пылью или мглою.
Явления - указаны атмосферные явления, наблюдавшиеся в срок или в последний час перед сроком; фигурными скобками обозначены явления, наблюдавшиеся между сроками (за 1-3 часа до срока); квадратными скобками обозначены град или гололедные отложения с указанием их диаметра в мм.
Облачность - указаны через наклонную черту общая и нижняя облачность в баллах и высота нижней границы облаков в метрах; квадратными скобками обозначены формы облаков: Ci - перистые, Cs - перисто-слоистые, Cc - перисто-кучевые, Ac - высококучевые, As - высокослоистые, Sc - слоисто-кучевые, Ns - слоисто-дождевые, Cu - кучевые, Cb - кучево-дождевые. Подробнее классификацию облаков см. в Атласе облаков (PDF).
T - Температура воздуха - температура, измеренная на высоте 2 м над землей.
Td - Температура точки росы - температура, при понижении до которой содержащийся в воздухе водяной пар достигнет насыщения.
f - Относительная влажность воздуха - влажноcть воздуха, измеренная на высоте 2 м над землей.
Te - Эффективная температура - температура, которую ощущает одетый по сезону человек в тени. Характеристика душности погоды. При расчете учитывается влияние влажности воздуха и скорости ветра на теплоощущения человека.
Tes - Эффективная температура на солнце - температура, которую ощущает человек, с поправкой на солнечный нагрев. Характеристика знойности погоды. Зависит от высоты солнца над горизонтом, облачности и скорости ветра. Ночью, в пасмурную погоду, а также при ветре 12 м/с и более поправка равна нулю.
P - Атмосферное давление - приведенное к уровню моря атмосферное давление.
Po - Атмосферное давление - измеренное на уровне метеостанции атмосферное давление.
Tmin - Минимальная температура - минимум температуры воздуха на высоте 2 м над землей.
Tmax - Максимальная температура - максимум температуры воздуха на высоте 2 м над землей.
R - Количество осадков - Количество выпавших осадков за период времени, мм. При наведении курсора мыши на число - период времени, за который выпало указанное количество осадков.
R24 - Количество осадков - Количество выпавших осадков за 24 часа, мм.
S - Снежный покров - Высота снежного покрова, см. При наведении курсора мыши на число - состояние снежного покрова и степень покрытия местности в баллах.